Paul Philippe Ploquin

Paul Philippe Ploquin

Statistiques 2026

  • Courses courues : 406
  • Nb de victoires : 46
  • Nb de places : 131
  • Écart gagnant : 22
  • Réussite à la gagne : 11%
  • Réussite à la place : 32%
Musique : 0a 0m 0a 5m 0a Da Da 7a Da Da Da Da 4a Dm 8a 2a Da 5a
DateRangCatégorieAlloc.Dist.HippodromeChevalRed. KmSpé.
16/09/25 D Trot 40 000€ 2 700m Vincennes Mana Tejy Monté
23/09/25 D Trot 59 000€ 2 700m Vincennes Ikyta de la Vallee Monté lire

Après avoir figuré, s'est montrée fautive dans la montée.

23/09/25 3 Trot 40 000€ 2 700m Vincennes Marquis du Chene 1'16"2 Attelé
23/09/25 2 Trot 40 000€ 2 700m Vincennes Mara Dibah 1'16"9 Attelé
26/09/25 7 Trot 53 000€ 2 700m Vincennes Kacey Bell 1'14"2 Monté
26/09/25 7 Trot 52 000€ 2 700m Vincennes Morning Prayer 1'15"9 Attelé
28/09/25 2 Trot 70 000€ 2 700m Vincennes Mistral Castelle 1'14"9 Attelé
03/10/25 5 Trot 41 000€ 2 700m Vincennes Jilika du Mesle 1'14"2 Attelé
03/10/25 5 Trot 60 000€ 2 700m Vincennes Lakana de Felliere 1'15"6 Monté lire

Très vite à la pointe du combat, a plafonné dans la phase finale.

03/10/25 1 Trot 46 000€ 2 700m Vincennes Lotta Love 1'13"5 Attelé
05/10/25 5 Mixte 14 000€ 2 725m Segre Maline du Plessis Attelé
05/10/25 6 Mixte 26 000€ 2 725m Segre Iquem d'Amer Attelé
05/10/25 2 Mixte 14 000€ 2 700m Segre Lili d'Evailles Attelé
05/10/25 6 Mixte 14 000€ 2 700m Segre Liana Pierji Attelé
07/10/25 5 Trot 46 000€ 2 700m Vincennes Etoile du Oz 1'14"0 Monté lire

Jamais loin dans le parcours, a bien tenu sa partie dans la phase finale.

07/10/25 6 Trot 41 000€ 2 700m Vincennes Katheo Winder 1'13"2 Attelé lire

A figuré au sein du peloton, avant de conclure honorablement.

14/10/25 8 Trot 46 000€ 2 700m Vincennes Loic d'Avel 1'13"4 Attelé
14/10/25 4 Trot 62 000€ 2 700m Vincennes Maestro du Choquel 1'14"0 Attelé
14/10/25 4 Trot 52 000€ 2 700m Vincennes Monaco 1'15"2 Monté
17/10/25 3 Trot 60 000€ 2 700m Vincennes Lotta Love 1'13"0 Attelé lire

Longtemps au sein du peloton, a conclu de belle façon.

17/10/25 7 Trot 62 000€ 2 700m Vincennes Midnight Express 1'16"8 Attelé
17/10/25 D Trot 52 000€ 2 700m Vincennes Munhoa Vedaquaise Monté
21/10/25 D Trot 41 000€ 2 700m Vincennes Khara Dry Monté
24/10/25 D Trot 80 000€ 2 700m Vincennes Lucky Jackson Attelé
24/10/25 4 Trot 41 000€ 2 700m Vincennes Krunch de l'Iton 1'14"4 Monté lire

Attentiste à l'arrière-garde, a conclu honorablement.

27/10/25 0 Trot 28 000€ 2 700m Le Croise Laroche Isla Juela Attelé
27/10/25 D Trot 23 000€ 2 700m Le Croise Laroche Meyou du Campus Attelé
27/10/25 0 Trot 21 000€ 2 700m Le Croise Laroche Maximus d'Along Attelé
28/10/25 4 Trot 56 000€ 2 700m Vincennes Jewel de Banville 1'13"1 Monté
28/10/25 0 Trot 40 000€ 2 700m Vincennes Lune de l'Emion Attelé
30/10/25 0 Trot 68 000€ 2 700m Vincennes Enjoy The Game Attelé lire

Longtemps à l'arrière-garde, n'a jamais pu s'exprimer dans la phase finale à l'intérieur.

30/10/25 4 Trot 40 000€ 2 700m Vincennes Mille Mercis 1'15"2 Attelé
30/10/25 6 Trot 53 000€ 2 700m Vincennes Kiroman 1'13"3 Attelé lire

Après avoir figuré au sein du peloton, a longtemps joué de malchance avant de bien terminer.

31/10/25 8 Trot 35 000€ 2 700m Vincennes Love You Phyt's 1'14"4 Attelé
31/10/25 3 Trot 40 000€ 2 700m Vincennes Laluna des Forges 1'13"1 Attelé
31/10/25 8 Trot 40 000€ 2 700m Vincennes Madone du Trieux 1'15"5 Attelé
31/10/25 3 Trot 35 000€ 2 700m Vincennes Lumiere Dairpet 1'14"8 Monté
03/11/25 D Trot 35 000€ 2 700m Vincennes Margarita Monté
04/11/25 D Trot 35 000€ 2 700m Vincennes Morning Sun Monté
06/11/25 D Trot 66 000€ 2 700m Vincennes Mosaic Life Attelé
06/11/25 D Trot 120 000€ 2 700m Vincennes Lisbonne Dry Monté
06/11/25 D Trot 66 000€ 2 700m Vincennes Mistral Castelle Attelé
06/11/25 7 Trot 41 000€ 2 700m Vincennes Krunchy 1'13"9 Attelé
06/11/25 5 Trot 59 000€ 2 700m Vincennes Jibi du Fruitier 1'12"5 Attelé lire

Longtemps sur une cinquième ligne, a conclu fort honorablement.

07/11/25 D Trot 40 000€ 2 700m Vincennes Lindstedt Attelé
07/11/25 5 Trot 60 000€ 2 700m Vincennes Key Lady 1'12"9 Attelé lire

Longtemps sur une quatrième ligne, a conclu fort honorablement.

08/11/25 1 Trot 41 000€ 2 700m Vincennes Kunamatata 1'13"1 Attelé
08/11/25 5 Trot 59 000€ 2 700m Vincennes Journee Revee 1'12"5 Attelé lire

Après avoir attendu à l'arrière-garde, a bien conclu.

08/11/25 2 Trot 21 000€ 2 700m Le Croise Laroche Just A Dollar 1'13"6 Attelé
08/11/25 6 Trot 21 000€ 2 700m Le Croise Laroche Liane 1'15"8 Attelé